カタログに戻る

COSMOS 677

運用中軍事LEO
NORAD 7435·PAYLOAD·🇷🇺 Russia

打ち上げ Sep 19, 1974 から Plesetsk Cosmodrome

Loading…

次のパス (今後24時間)

TLE

最新Source: Space-Track

元期: Sep 14, 2026, 06:06 UTC

1 07435U 74072A   26257.25456736 -.00000012  00000-0  25030-4 0  9997
2 07435  74.0357 193.7685 0045338 271.8901 242.1179 12.58030836387388

AllMySatでCOSMOS 677をリアルタイム追跡

Download on the App Store